SCP
0 0 0 0 0 0 0 0 0 0 0 0 0 0 0 0 0 0 0 0 0 0 0 0 0 0 0 0 0 0 0 0
0 0 0 0 0 0 0 0 0 0 0 0 0 0 0 0 0 0 -0 0 0 0 0 0 0 0 0 0 0 0 0 0
0 0 0 0 0 0 0 0 0 0 0 0 0 0 0 0 0 0 0 0 0 0 0 0 0 0 0 0 0 0 0 0
0 0 0 0 0 0 0 0 0 0 0 0 0 0 0 0 0 0 0 0 0 0 0 0 0 0 0 0 0 0 0 0
0 0 0 0 0 0 0 0 0 0 0 0 0 0 0 0 0 0 0 0 0 0 0 0 0 0 0 0 0 0 0 0
0 0 0 0 0 0 0 0 0 0 0 0 0 0 0 0 0 0 0 0 0 0 0 0 0 0 0 0 0 0 0 0
0 0 0 0 0 0 0 0 0 0 0 0 0 0 0 0 0 0 0 0 0 0 0 0 0 0 0 0 0 0 0 0
0 0 0 0 0 0 0 0 0 0 0 0 0 0 0 0 0 0 0 0 0 0 0 0 0 0 0 -0 -0 0 0 0
0 0 0 0 0 0 0 0 0 0 0 0 0 0 0 0 0 0 0 0 0 0 0 0 0 0 0 0 0 -0 0 0
0 0 0 0 0 0 0 0 0 0 0 0 0 0 0 0 0 0 0 0 0 0 0 0 0 0 0 0 0 0 0 0
0 0 0 0 0 0 0 0 0 0 0 0 0 0 0 0 0 0 0 0 0 0 0 0 0 0 0 0 0 0 0 0
0 0 0 0 0 0 0 0 0 0 0 0 0 0 0 0 0 0 0 0 0 0 0 0 0 0 0 0 0 0 0 0
0 0 0 0 0 0 0 0 0 0 0 0 0 0 0 0 0 0 0 0 0 0 0 0 0 0 0 0 0 0 0 0
0 0 0 0 0 0 0 0 0 0 0 0 0 0 0 0 0 0 0 0 0 0 0 0 0 0 0 0 0 0 0 0
0 0 0 0 0 0 0 0 0 0 0 0 0 0 0 0 0 0 0 0 0 0 0 0 0 0 0 0 0 0 0 0
0 0 0 0 0 0 0 0 0 0 0 0 0 0 0 0 0 0 0 0 0 0 0 0 0 0 0 0 0 0 0 0
0 0 0 0 0 0 0 0 0 0 0 0 0 0 0 0 0 0 0 0 0 0 0 0 0 0 0 0 0 0 0 0
0 0 0 0 0 0 0 0 1 0 0 0 0 0 0 0 0 0 0 0 0 0 0 0 0 0 0 0 0 0 0 0
0 0 1 1 1 0 0 1 1 0 0 0 0 0 0 0 0 0 0 0 0 0 0 0 0 0 0 0 0 -0 0 0
1 1 1 1 1 1 1 1 1 1 0 0 0 0 0 0 0 0 0 0 0 0 0 0 0 0 0 0 0 -0 0 0
Wind_Speed_500mb
19 19 20 20 18 19 21 23 25 25 21 31 40 32 30 36 31 38 38 36 39 45 41 40 35 39 39 37 45 42 41 35
18 14 17 19 18 16 19 20 23 22 21 26 34 32 32 36 32 36 40 30 39 45 32 34 33 39 37 37 39 47 41 37
15 13 13 16 17 17 17 18 21 21 21 21 24 27 34 30 34 31 39 32 36 42 42 36 35 38 36 37 38 41 41 42
12 10 10 13 15 16 15 16 18 20 19 18 19 23 26 30 28 27 34 30 35 40 43 40 41 34 34 36 43 40 44 56
6 7 7 9 12 14 15 15 17 19 17 17 18 18 24 29 27 28 31 27 31 34 39 40 33 32 38 44 44 45 44 40
7 9 6 6 9 11 13 14 16 17 14 15 16 16 19 21 26 25 27 26 27 32 34 31 26 27 30 31 35 36 43 46
8 7 6 5 8 10 13 13 16 15 13 14 15 14 17 21 26 27 26 25 24 25 25 31 24 21 24 24 22 25 33 32
9 7 5 2 6 8 13 13 14 14 12 13 13 15 14 17 26 24 28 24 20 19 18 27 26 22 22 23 22 20 24 28
9 6 5 1 5 9 12 13 13 14 12 13 13 15 22 13 25 21 21 27 22 29 20 14 23 24 22 24 20 20 27 25
9 5 6 3 3 7 10 12 11 13 13 12 12 17 19 20 19 21 23 22 23 28 25 17 22 19 18 22 26 26 30 30
7 7 9 7 7 6 8 11 10 11 13 14 13 19 16 26 19 22 23 24 17 20 21 21 21 23 25 22 26 23 28 29
10 8 9 10 11 10 9 9 10 11 14 14 19 19 23 18 25 23 21 26 25 26 21 25 19 25 24 24 23 28 27 28
11 10 10 10 12 11 12 12 13 13 14 18 23 18 21 20 31 22 23 27 29 30 28 23 21 19 23 22 24 30 35 35
14 14 12 10 11 13 14 16 16 15 16 17 17 22 24 30 28 17 30 31 32 30 34 32 24 28 29 28 31 34 33 36
18 17 15 14 13 15 17 20 21 18 19 18 18 20 19 21 27 35 31 27 32 30 34 36 36 31 29 30 30 32 33 37
23 22 22 21 18 18 19 21 26 22 21 22 26 22 26 29 28 28 30 36 33 35 31 36 34 33 32 28 34 36 34 30
29 28 27 24 23 24 25 25 27 27 26 22 22 23 32 28 31 28 28 33 31 36 35 34 36 38 23 29 34 36 38 37
36 37 32 30 32 32 31 34 33 31 28 27 32 33 25 30 28 28 34 29 29 38 37 31 39 38 39 38 43 44 36 37
37 39 35 37 40 36 36 36 38 34 29 29 33 35 28 28 32 31 26 36 39 37 33 36 42 44 41 38 41 38 38 35
35 42 45 45 44 42 42 38 40 38 32 32 32 36 33 33 33 31 46 38 39 47 42 29 39 40 39 38 46 40 41 43
Wind_Direction_500mb
51 29 33 34 20 17 13 14 14 14 2 352 8 16 12 4 7 6 6 16 6 2 5 6 15 14 20 29 23 18 15 23
54 32 27 32 20 14 12 10 11 11 10 1 0 16 14 4 8 4 12 20 9 2 18 3 16 17 26 31 28 24 28 34
53 50 33 21 16 12 11 3 7 10 5 7 5 354 2 12 11 5 13 23 15 4 12 15 12 25 32 34 35 27 35 38
46 50 39 24 13 9 5 2 6 4 0 4 360 3 353 4 10 2 1 22 17 16 21 10 7 34 44 50 47 42 57 53
49 79 62 35 15 9 5 2 2 358 360 2 359 12 7 2 5 1 2 19 13 30 25 14 32 56 64 54 50 46 50 50
73 91 92 51 17 15 2 5 356 358 6 5 4 8 4 5 356 360 4 11 16 28 27 19 32 55 53 44 48 41 40 45
110 116 106 69 19 17 6 7 355 1 2 5 1 6 7 4 1 4 5 6 19 11 24 21 36 47 50 47 45 22 20 28
131 139 131 80 20 14 4 1 356 1 356 356 353 353 350 351 360 359 3 4 10 356 21 12 20 30 33 37 38 11 12 26
139 147 197 53 13 4 352 350 356 354 354 350 344 348 5 336 350 3 345 6 5 4 10 359 5 13 24 24 20 15 26 27
168 185 222 226 308 337 344 339 347 345 348 342 345 336 345 327 341 349 344 333 336 355 353 333 332 344 0 10 8 8 15 8
206 206 233 229 260 295 334 327 330 332 339 336 335 327 350 7 349 351 344 341 317 337 334 327 316 302 320 335 346 354 351 351
218 220 227 249 257 272 298 314 305 316 316 323 314 325 341 334 346 350 345 339 330 326 318 320 309 313 309 309 328 326 323 323
220 233 237 249 254 267 280 293 295 303 302 304 335 319 327 324 332 308 345 343 327 334 342 304 302 307 312 311 307 317 317 321
218 228 235 242 254 267 272 275 280 287 301 319 303 322 311 310 324 320 325 324 323 329 334 322 316 309 308 303 302 310 320 321
221 228 238 246 250 257 260 264 272 281 285 304 313 310 316 320 310 305 312 322 324 323 326 334 316 310 314 316 311 310 316 315
213 221 227 234 241 252 257 257 268 280 280 286 308 307 309 308 317 321 316 312 311 316 323 323 336 319 307 307 316 316 318 318
217 218 225 233 242 251 255 254 255 268 274 284 282 290 302 310 317 303 301 315 313 314 312 318 320 328 312 307 315 318 326 315
227 229 231 236 244 248 249 251 257 264 274 292 294 288 305 304 307 322 312 306 315 315 311 313 320 322 323 317 313 305 307 311
241 251 249 253 255 255 254 252 262 260 260 269 281 283 288 295 301 308 310 303 306 314 305 314 316 301 303 302 303 317 299 297
252 258 259 261 259 263 258 255 263 263 266 272 277 283 286 285 291 292 308 307 297 304 308 305 312 314 313 311 305 310 311 313
Wind_Speed_850mb
19 19 20 20 18 19 21 23 25 25 21 31 40 32 30 36 31 38 38 36 39 45 41 40 35 39 39 37 45 42 41 35
18 14 17 19 18 16 19 20 23 22 21 26 34 32 32 36 32 36 40 30 39 45 32 34 33 39 37 37 39 47 41 37
15 13 13 16 17 17 17 18 21 21 21 21 24 27 34 30 34 31 39 32 36 42 42 36 35 38 36 37 38 41 41 42
12 10 10 13 15 16 15 16 18 20 19 18 19 23 26 30 28 27 34 30 35 40 43 40 41 34 34 36 43 40 44 56
6 7 7 9 12 14 15 15 17 19 17 17 18 18 24 29 27 28 31 27 31 34 39 40 33 32 38 44 44 45 44 40
7 9 6 6 9 11 13 14 16 17 14 15 16 16 19 21 26 25 27 26 27 32 34 31 26 27 30 31 35 36 43 46
8 7 6 5 8 10 13 13 16 15 13 14 15 14 17 21 26 27 26 25 24 25 25 31 24 21 24 24 22 25 33 32
9 7 5 2 6 8 13 13 14 14 12 13 13 15 14 17 26 24 28 24 20 19 18 27 26 22 22 23 22 20 24 28
9 6 5 1 5 9 12 13 13 14 12 13 13 15 22 13 25 21 21 27 22 29 20 14 23 24 22 24 20 20 27 25
9 5 6 3 3 7 10 12 11 13 13 12 12 17 19 20 19 21 23 22 23 28 25 17 22 19 18 22 26 26 30 30
7 7 9 7 7 6 8 11 10 11 13 14 13 19 16 26 19 22 23 24 17 20 21 21 21 23 25 22 26 23 28 29
10 8 9 10 11 10 9 9 10 11 14 14 19 19 23 18 25 23 21 26 25 26 21 25 19 25 24 24 23 28 27 28
11 10 10 10 12 11 12 12 13 13 14 18 23 18 21 20 31 22 23 27 29 30 28 23 21 19 23 22 24 30 35 35
14 14 12 10 11 13 14 16 16 15 16 17 17 22 24 30 28 17 30 31 32 30 34 32 24 28 29 28 31 34 33 36
18 17 15 14 13 15 17 20 21 18 19 18 18 20 19 21 27 35 31 27 32 30 34 36 36 31 29 30 30 32 33 37
23 22 22 21 18 18 19 21 26 22 21 22 26 22 26 29 28 28 30 36 33 35 31 36 34 33 32 28 34 36 34 30
29 28 27 24 23 24 25 25 27 27 26 22 22 23 32 28 31 28 28 33 31 36 35 34 36 38 23 29 34 36 38 37
36 37 32 30 32 32 31 34 33 31 28 27 32 33 25 30 28 28 34 29 29 38 37 31 39 38 39 38 43 44 36 37
37 39 35 37 40 36 36 36 38 34 29 29 33 35 28 28 32 31 26 36 39 37 33 36 42 44 41 38 41 38 38 35
35 42 45 45 44 42 42 38 40 38 32 32 32 36 33 33 33 31 46 38 39 47 42 29 39 40 39 38 46 40 41 43
Wind_Direction_850mb
51 29 33 34 20 17 13 14 14 14 2 352 8 16 12 4 7 6 6 16 6 2 5 6 15 14 20 29 23 18 15 23
54 32 27 32 20 14 12 10 11 11 10 1 0 16 14 4 8 4 12 20 9 2 18 3 16 17 26 31 28 24 28 34
53 50 33 21 16 12 11 3 7 10 5 7 5 354 2 12 11 5 13 23 15 4 12 15 12 25 32 34 35 27 35 38
46 50 39 24 13 9 5 2 6 4 0 4 360 3 353 4 10 2 1 22 17 16 21 10 7 34 44 50 47 42 57 53
49 79 62 35 15 9 5 2 2 358 360 2 359 12 7 2 5 1 2 19 13 30 25 14 32 56 64 54 50 46 50 50
73 91 92 51 17 15 2 5 356 358 6 5 4 8 4 5 356 360 4 11 16 28 27 19 32 55 53 44 48 41 40 45
110 116 106 69 19 17 6 7 355 1 2 5 1 6 7 4 1 4 5 6 19 11 24 21 36 47 50 47 45 22 20 28
131 139 131 80 20 14 4 1 356 1 356 356 353 353 350 351 360 359 3 4 10 356 21 12 20 30 33 37 38 11 12 26
139 147 197 53 13 4 352 350 356 354 354 350 344 348 5 336 350 3 345 6 5 4 10 359 5 13 24 24 20 15 26 27
168 185 222 226 308 337 344 339 347 345 348 342 345 336 345 327 341 349 344 333 336 355 353 333 332 344 0 10 8 8 15 8
206 206 233 229 260 295 334 327 330 332 339 336 335 327 350 7 349 351 344 341 317 337 334 327 316 302 320 335 346 354 351 351
218 220 227 249 257 272 298 314 305 316 316 323 314 325 341 334 346 350 345 339 330 326 318 320 309 313 309 309 328 326 323 323
220 233 237 249 254 267 280 293 295 303 302 304 335 319 327 324 332 308 345 343 327 334 342 304 302 307 312 311 307 317 317 321
218 228 235 242 254 267 272 275 280 287 301 319 303 322 311 310 324 320 325 324 323 329 334 322 316 309 308 303 302 310 320 321
221 228 238 246 250 257 260 264 272 281 285 304 313 310 316 320 310 305 312 322 324 323 326 334 316 310 314 316 311 310 316 315
213 221 227 234 241 252 257 257 268 280 280 286 308 307 309 308 317 321 316 312 311 316 323 323 336 319 307 307 316 316 318 318
217 218 225 233 242 251 255 254 255 268 274 284 282 290 302 310 317 303 301 315 313 314 312 318 320 328 312 307 315 318 326 315
227 229 231 236 244 248 249 251 257 264 274 292 294 288 305 304 307 322 312 306 315 315 311 313 320 322 323 317 313 305 307 311
241 251 249 253 255 255 254 252 262 260 260 269 281 283 288 295 301 308 310 303 306 314 305 314 316 301 303 302 303 317 299 297
252 258 259 261 259 263 258 255 263 263 266 272 277 283 286 285 291 292 308 307 297 304 308 305 312 314 313 311 305 310 311 313